This demonstration page uses our WeatherBlox Daily Observations layout. Learn more.

41.55636, -103.73856

Hourly Observations for May 25, 2018

Temp ( °F °C ) Dew Point ( °F °C ) Humidity (%) Winds ( mph kmh ) Pressure ( in mb ) Visibility ( mi km ) Precip ( " mm )
12:53 am 00:53 Clear 56 13.3 52 11.1 87 87 NE 6 9 29.85 1011 10 16.09344 0 0
1:53 am 01:53 Clear 54 12.2 51 10.6 90 90 N 8 13 29.88 1012 10 16.09344 0 0
2:53 am 02:53 Clear 52 11.1 50 10 93 93 NNW 5 7 29.88 1012 10 16.09344 0 0
3:53 am 03:53 Clear 50 10 50 10 100 100 NNW 5 7 29.88 1012 10 16.09344 0 0
4:53 am 04:53 Clear 51 10.6 50 10 96 96 WNW 5 7 29.88 1012 10 16.09344 0 0
5:53 am 05:53 Sunny 51 10.6 51 10.6 100 100 WNW 6 9 29.88 1012 10 16.09344 0 0
6:53 am 06:53 Sunny 56 13.3 54 12.2 93 93 WNW 5 7 29.88 1012 10 16.09344 0 0
7:53 am 07:53 Sunny 63 17.2 54 12.2 73 73 WNW 7 11 29.88 1012 10 16.09344 0 0
8:53 am 08:53 Sunny 69 20.6 54 12.2 59 59 NW 12 19 29.88 1012 10 16.09344 0 0
9:53 am 09:53 Sunny 73 22.8 55 12.8 53 53 W 9 15 29.88 1012 10 16.09344 0 0
10:53 am 10:53 Sunny 78 25.6 56 13.3 47 47 WNW 7 11 29.88 1012 10 16.09344 0 0
11:53 am 11:53 Sunny 82 27.8 56 13.3 41 41 WNW 8 13 29.85 1011 10 16.09344 0 0
12:53 pm 12:53 Sunny 84 28.9 53 11.7 34 34 WNW 9 15 29.85 1011 10 16.09344 0 0
1:53 pm 13:53 Sunny 86 30 49 9.4 28 28 NW 9 15 29.83 1010 10 16.09344 0 0
2:53 pm 14:53 Sunny 87 30.6 48 8.9 26 26 W 5 7 29.83 1010 10 16.09344 0 0
3:53 pm 15:53 Sunny 88 31.1 47 8.3 24 24 Calm 29.8 1009 10 16.09344 0 0
4:53 pm 16:53 Sunny 88 31.1 49 9.4 26 26 WNW 6 9 29.77 1008 10 16.09344 0 0
5:53 pm 17:53 Sunny 88 31.1 53 11.7 30 30 W 3 6 29.77 1008 10 16.09344 0 0
6:53 pm 18:53 Sunny 83 28.3 52 11.1 34 34 NNE 8 13 29.77 1008 10 16.09344 0 0
7:53 pm 19:53 Sunny 77 25 55 12.8 47 47 NE 8 13 29.77 1008 10 16.09344 0 0
8:53 pm 20:53 Clear 71 21.7 57 13.9 61 61 ENE 12 19 29.77 1008 10 16.09344 0 0
9:53 pm 21:53 Clear 69 20.6 58 14.4 68 68 ENE 9 15 29.77 1008 10 16.09344 0 0
10:53 pm 22:53 Clear 68 20 56 13.3 65 65 Calm 29.77 1008 10 16.09344 0 0
11:53 pm 23:53 Clear 63 17.2 55 12.8 76 76 E 5 7 29.8 1009 10 16.09344 0 0

Powered by AerisWeather